Regional Weather Roundup
Issued by NWS

Home | Current Version | Previous Version | Text Only | Print | Product List | Glossary Off
Versions: 1 2 3 4 5 6 7 8 9 10 11 12 13 14 15 16 17 18 19 20 21 22 23 24 25 26 27 28 29 30 31 32 33 34 35 36 37 38 39 40 41 42 43 44 45 46 47 48 49 50

000
ASUS43 KLOT 171358
RWRIL

ILLINOIS REGIONAL WEATHER ROUNDUP
NATIONAL WEATHER SERVICE CHICAGO/ROMEOVILLE IL
900 AM CDT THU APR 17 2014

NOTE: "FAIR" INDICATES FEW OR NO CLOUDS BELOW 12,000 FEET WITH NO
SIGNIFICANT WEATHER AND/OR OBSTRUCTIONS TO VISIBILITY.

* THESE STATIONS ARE NOT UNDER NWS QUALITY CONTROL. THEY ALSO MAY NOT
  REPORT WEATHER SUCH AS PRECIPITATION OR FOG.

ILZ001-002-007-009-015-016-024-171500-
NORTHWEST ILLINOIS

CITY           SKY/WX    TMP DP  RH WIND       PRES   REMARKS
MOLINE         CLOUDY    41  33  73 W13       30.17R
$$

ILZ003-004-008-010-011-017-018-171500-
NORTH CENTRAL ILLINOIS

CITY           SKY/WX    TMP DP  RH WIND       PRES   REMARKS
ROCKFORD       NOT AVBL
$$

ILZ005-006-012>014-019>023-171500-
NORTHEAST ILLINOIS

CITY           SKY/WX    TMP DP  RH WIND       PRES   REMARKS
CHICAGO-OHARE  MOSUNNY   49  29  46 SW18      30.14S
CHICAGO-MIDWAY PTSUNNY   48  30  49 S17G26    30.16R
AURORA         SUNNY     48  32  53 SW15      30.15R
WAUKEGAN       MOSUNNY   49  30  48 SW21G28   30.11S
DUPAGE AIRPORT SUNNY     48  31  51 SW14      30.14R
WHEELING       SUNNY     49  30  48 S17G24    30.14S
NORTHERLY ISL    N/A     47  27  46 S16         N/A
$$

LMZ740>746-171500-
SOUTHERN LAKE MICHIGAN

STATION/POSITION SKY/WX   TEMP    WIND        PRES    VSBY  WAVE
                          AIR SEA DIR/SP/G                  HT/PER
                          (F)     (DEG/KT/KT) (MB)    (MI)  (FT/S)
WAUKEGAN HARBOR            46     200/ 18/ 24 1020.7F
HARRISON CRIB              44     180/ 20/ 23   N/A
BURNHAM HARBOR             47     190/ 17       N/A
CALUMET HARBOR             45     180/ 15/ 19 1022.1R
MICHIGAN CITY              43     140/ 14/ 18   N/A
$$

ILZ025>027-034>036-040-047-049-050-058-095>099-171500-
WEST-CENTRAL ILLINOIS

CITY           SKY/WX    TMP DP  RH WIND       PRES   REMARKS
$$

ILZ028>032-037-038-041>044-048-051>054-059>061-171500-
CENTRAL ILLINOIS

CITY           SKY/WX    TMP DP  RH WIND       PRES   REMARKS
PEORIA         NOT AVBL
SPRINGFIELD    SUNNY     51  32  48 SW8       30.22R
TAYLORVILLE    NOT AVBL
$$

ILZ033-039-045-046-055>057-062-063-171500-
EAST-CENTRAL ILLINOIS

CITY           SKY/WX    TMP DP  RH WIND       PRES   REMARKS
CHAMPAIGN      SUNNY     52  34  50 S15       30.22R
MATTOON        MOSUNNY   50  34  54 S10       30.24R
$$

ILZ079-100>102-171500-
SOUTHWEST ILLINOIS

CITY           SKY/WX    TMP DP  RH WIND       PRES   REMARKS
ALTON          PTSUNNY   50  34  53 S14       30.23R
CAHOKIA*       SUNNY     54  35  48 S8        30.23R
$$

ILZ064>066-069>071-074>076-080>082-084>086-088>090-092>094-171500-
SOUTH-CENTRAL ILLINOIS

CITY           SKY/WX    TMP DP  RH WIND       PRES   REMARKS
CARBONDALE     PTSUNNY   53  38  56 S7        30.28R
MARION         MOSUNNY   54  37  54 S8        30.29R
$$

ILZ067-068-072-073-078-083-087-091-171500-
SOUTHEAST ILLINOIS

CITY           SKY/WX    TMP DP  RH WIND       PRES   REMARKS
$$

ABBREVIATIONS USED IN REMARKS
   TC - TEMPERATURE IN CELSIUS
  WCI - WIND CHILL INDEX
   HX - HEAT INDEX
  VSB - VISIBILITY
$$




USA.gov is the U.S. government's official web portal to all federal, state and local government web resources and services.